Regional Weather Roundup
Issued by NWS

Home | Current Version | Previous Version | Graphics & Text | Print | Product List | Glossary On
Versions: 1 2 3 4 5 6 7 8 9 10 11 12 13 14 15 16 17 18 19 20 21 22 23 24 25 26 27 28 29 30 31 32 33 34 35 36 37 38 39 40 41 42 43 44 45 46 47 48 49 50
000
ASUS43 KIND 130059
RWRIN

WEATHER ROUNDUP FOR INDIANA
NATIONAL WEATHER SERVICE INDIANAPOLIS IN
900 PM EDT SAT JUL 12 2014

NOTE: "FAIR" INDICATES FEW OR NO CLOUDS BELOW 12,000 FEET WITH NO
SIGNIFICANT WEATHER AND/OR OBSTRUCTIONS TO VISIBILITY.

* - STATION DOES NOT REPORT WEATHER SUCH AS PRECIPITATION OR FOG.

+ - STATION NOT QUALITY CONTROLLED BY THE NATIONAL WEATHER SERVICE.
    USE DATA WITH CAUTION...ESPECIALLY DEWPOINT AND RELATIVE
    HUMIDITY OBSERVATIONS.

INZ001>003-010>013-019-020-130200-
NORTHWEST INDIANA

CITY           SKY/WX    TMP DP  RH WIND       PRES   REMARKS
GARY /AIRPORT/ CLOUDY    79  73  83 S5        29.93F
KNOX *+        CLOUDY    75  69  82 S9        29.94F
MONTICELLO +   CLOUDY    76  72  89 S9        29.96F
RENSSELAER +   CLOUDY    77  75  94 S8        29.96S
VALPARAISO     CLOUDY    76  72  87 S3        29.95F

$$

LMZ046-743>745-130200-
SOUTHERN LAKE MICHIGAN

STATION/POSITION TIME  TEMP WIND        PRES
                       AIR  DIR/SP/G
                 (UTC) (F)  (DEG/KT/KT) (MB)
BURNS HARBOR     0000   77  200/  9/ 13 1014.9S
MICHIGAN CITY    0000   77  170/  8/ 11   N/A

$$

INZ004-005-014>016-021>024-130200-
NORTH CENTRAL INDIANA

CITY           SKY/WX    TMP DP  RH WIND       PRES   REMARKS
GOSHEN         CLOUDY    77  69  76 S8        29.98F
SOUTH BEND     CLOUDY    77  70  79 S9        29.97F
WARSAW +       CLOUDY    75  70  83 S3        29.99F

$$

INZ006>009-017-018-025>027-130200-
NORTHEAST INDIANA

CITY           SKY/WX    TMP DP  RH WIND       PRES   REMARKS
ANGOLA *+      MOCLDY    75  70  83 S6        30.00F
FORT WAYNE     CLOUDY    77  68  73 S6        30.02F

$$

INZ028-029-035-036-043>045-051>053-130200-
WEST CENTRAL INDIANA

CITY           SKY/WX    TMP DP  RH WIND       PRES   REMARKS
GREENCASTLE +  CLOUDY    75  72  88 S6        30.02F
LAFAYETTE      MOCLDY    77  72  84 S6        29.97F
TERRE HAUTE    MOCLDY    79  73  82 S8        30.01F

$$

INZ030>032-037>040-046>048-054>057-064-065-130200-
CENTRAL INDIANA

CITY           SKY/WX    TMP DP  RH WIND       PRES   REMARKS
COLUMBUS       MOCLDY    79  72  78 SW7       30.04F
INDIANAPOLIS   CLOUDY    77  70  79 S12       30.01F
-EAGLE CREEK   CLOUDY    77  69  76 SW8       30.01F
KOKOMO *+      MOCLDY    73  70  88 S6        30.00F
MT COMFORT *+  CLOUDY    77  73  88 S8        30.03F
SHELBYVILLE    CLOUDY    79  70  74 S9        30.03F

$$

INZ033-034-041-042-049-050-058-059-130200-
EAST CENTRAL INDIANA

CITY           SKY/WX    TMP DP  RH WIND       PRES   REMARKS
MUNCIE         CLOUDY    78  68  71 S7        30.03F

$$

INZ060-061-067>069-081>083-085>088-130200-
SOUTHWEST INDIANA

CITY           SKY/WX    TMP DP  RH WIND       PRES   REMARKS
EVANSVILLE     PTCLDY    83  73  72 S6        30.05F
HUNTINGBURG *+ PTCLDY    81  70  69 SW7       30.06S

$$

INZ062-063-066-070>080-084-089>092-130200-
SOUTH CENTRAL AND SOUTHEAST INDIANA

CITY           SKY/WX    TMP DP  RH WIND       PRES   REMARKS
BLOOMINGTON    CLOUDY    78  70  76 SW6       30.04F

$$




USA.gov is the U.S. government's official web portal to all federal, state and local government web resources and services.